EW9154 Weather Reports


Display with metric or nautical units.
time (UTC)temp
F
wind
direction
speed
MPH
gust
MPH
rain 1hr
in
rain 24hr
in
rain mn
in
humidity
%
barometer
mb
20260831144823 79 240 0.0 0.0 0.00 0.00 0.00 86 1024.1
20260831144301 78 263 0.0 0.0 0.00 0.00 0.00 88 1024.0
20260831143758 78 263 0.0 0.0 0.00 0.00 0.00 89 1023.9
20260831143533 77 257 0.0 0.0 0.00 0.00 0.00 89 1023.9
20260831143005 77 257 0.0 0.0 0.00 0.00 0.00 91 1023.7
20260831142504 76 257 0.0 0.0 0.00 0.00 0.00 91 1023.6
20260831141935 76 256 0.0 0.0 0.00 0.00 0.00 92 1023.6
20260831141202 76 256 0.0 0.0 0.00 0.00 0.00 92 1023.4
20260831140637 75 204 0.0 0.0 0.00 0.00 0.00 93 1023.5
20260831140133 75 254 0.0 0.0 0.00 0.00 0.00 93 1023.5
20260831135604 74 257 0.0 0.0 0.00 0.00 0.00 94 1023.4
20260831135103 74 257 0.0 0.0 0.00 0.00 0.00 94 1023.3
20260831134542 74 257 0.0 0.0 0.00 0.00 0.00 94 1023.3
20260831134041 74 234 0.0 0.0 0.00 0.00 0.00 94 1023.2
20260831133540 74 225 0.0 0.0 0.00 0.00 0.00 94 1023.2
20260831133311 73 225 0.0 0.0 0.00 0.00 0.00 94 1023.1
20260831132517 73 243 0.0 0.0 0.00 0.00 0.00 94 1022.9
20260831131948 73 242 0.0 0.0 0.00 0.00 0.00 94 1023.0
20260831131447 73 228 0.0 0.0 0.00 0.00 0.00 94 1023.0
20260831131153 73 233 0.0 2.0 0.00 0.00 0.00 94 1022.9
20260831130407 73 211 0.0 2.0 0.00 0.00 0.00 95 1022.8
20260831125906 73 219 0.0 0.0 0.00 0.00 0.00 95 1022.8
20260831125402 72 215 0.0 1.0 0.00 0.00 0.00 95 1022.7
20260831124901 72 197 0.0 1.0 0.00 0.00 0.00 95 1022.6
20260831124335 72 203 0.0 0.0 0.00 0.00 0.00 95 1022.5
20260831123804 72 207 0.0 0.0 0.00 0.00 0.00 95 1022.5
20260831123303 72 205 0.0 0.0 0.00 0.00 0.00 95 1022.6
20260831122742 72 213 0.0 2.0 0.00 0.00 0.00 95 1022.7
20260831122216 72 234 0.0 2.0 0.00 0.00 0.00 95 1022.5
20260831121715 72 215 0.0 2.0 0.00 0.00 0.00 95 1022.5
20260831121210 72 209 0.0 2.0 0.00 0.00 0.00 95 1022.2
20260831120645 72 217 0.0 1.0 0.00 0.00 0.00 95 1022.2
20260831120116 72 223 0.0 0.0 0.00 0.00 0.00 95 1022.4
20260831115609 72 202 0.0 0.0 0.00 0.00 0.00 94 1022.1
20260831115040 72 236 0.0 1.0 0.00 0.00 0.00 94 1022.0
20260831114536 72 238 0.0 1.0 0.00 0.00 0.00 94 1021.8
20260831114030 72 221 0.0 1.0 0.00 0.00 0.00 94 1021.8
20260831113529 72 221 0.0 2.0 0.00 0.00 0.00 94 1021.7
20260831113015 72 236 0.0 2.0 0.00 0.00 0.00 94 1021.8
20260831112515 72 229 0.0 2.0 0.00 0.00 0.00 94 1021.7
20260831111946 72 206 0.0 2.0 0.00 0.00 0.00 94 1021.6
20260831111421 73 238 0.0 1.0 0.00 0.00 0.00 94 1021.7
20260831110854 73 209 0.0 1.0 0.00 0.00 0.00 94 1021.5
20260831110354 73 213 0.0 4.0 0.00 0.00 0.00 94 1021.4
20260831105849 73 225 0.0 4.0 0.00 0.00 0.00 94 1021.3
20260831105625 73 208 0.0 4.0 0.00 0.00 0.00 94 1021.2
20260831104824 73 227 0.0 4.0 0.00 0.00 0.00 94 1021.2
20260831104323 73 223 0.0 2.0 0.00 0.00 0.00 94 1021.1
20260831104033 73 216 0.0 2.0 0.00 0.00 0.00 94 1021.2
20260831103300 73 225 0.0 5.0 0.00 0.00 0.00 94 1021.3
20260831102759 73 228 0.0 5.0 0.00 0.00 0.00 94 1021.3
20260831102305 73 207 1.0 8.0 0.00 0.00 0.00 94 1021.3
20260831102021 73 239 1.0 8.0 0.00 0.00 0.00 94 1021.3
20260831101252 73 240 0.0 6.0 0.00 0.00 0.00 94 1021.3
20260831100726 73 210 0.0 6.0 0.00 0.00 0.00 94 1021.2
20260831100158 73 228 0.0 5.0 0.00 0.00 0.00 94 1021.2
20260831095658 73 203 0.0 5.0 0.00 0.00 0.00 94 1021.2
20260831095146 73 227 0.0 3.0 0.00 0.00 0.00 94 1021.2
20260831094618 73 190 0.0 3.0 0.00 0.00 0.00 94 1021.0
20260831094114 73 215 0.0 3.0 0.00 0.00 0.00 94 1021.1
20260831093825 73 223 0.0 7.0 0.00 0.00 0.00 94 1021.2
20260831093020 73 229 0.0 7.0 0.00 0.00 0.00 94 1021.3
20260831092735 73 226 0.0 9.0 0.00 0.00 0.00 93 1021.2
20260831092007 73 216 0.0 9.0 0.00 0.00 0.00 93 1021.2
20260831091944 73 211 0.0 5.0 0.00 0.00 0.00 93 1021.2
20260831091438 73 214 0.0 5.0 0.00 0.00 0.00 93 1021.1
20260831090428 73 222 0.0 5.0 0.00 0.00 0.00 93 1021.1
20260831085928 73 213 0.0 4.0 0.00 0.00 0.00 93 1021.1
20260831085410 73 214 0.0 4.0 0.00 0.00 0.00 93 1021.0
20260831085142 73 206 0.0 2.0 0.00 0.00 0.00 93 1021.1
20260831084410 73 225 0.0 10.0 0.00 0.00 0.00 93 1021.1
20260831083900 73 214 0.0 10.0 0.00 0.00 0.00 92 1021.1
20260831083633 73 213 0.0 2.0 0.00 0.00 0.00 92 1021.1
20260831082837 73 226 0.0 7.0 0.00 0.00 0.00 92 1021.0
20260831082327 73 227 0.0 7.0 0.00 0.00 0.00 92 1021.0
20260831082059 73 242 0.0 7.0 0.00 0.00 0.00 92 1020.9
20260831081305 73 189 0.0 7.0 0.00 0.00 0.00 92 1020.8
20260831080805 74 229 0.0 6.0 0.00 0.00 0.00 92 1020.8
20260831080536 74 234 0.0 4.0 0.00 0.00 0.00 92 1020.9
20260831075805 74 246 0.0 3.0 0.00 0.00 0.00 92 1020.9
20260831075252 74 215 0.0 8.0 0.00 0.00 0.00 92 1020.9
20260831074727 74 235 0.0 7.0 0.00 0.00 0.00 92 1020.9
20260831074228 74 226 0.0 4.0 0.00 0.00 0.00 92 1020.9
20260831073727 73 234 0.0 4.0 0.00 0.00 0.00 91 1020.9
20260831073158 73 186 0.0 8.0 0.00 0.00 0.00 91 1020.8
20260831072634 73 182 0.0 8.0 0.00 0.00 0.00 91 1020.9
20260831072117 73 190 1.0 9.0 0.00 0.00 0.00 91 1020.8
20260831071614 73 236 1.0 9.0 0.00 0.00 0.00 91 1020.8
20260831071346 73 240 0.0 8.0 0.00 0.00 0.00 91 1021.0
20260831070839 73 202 0.0 8.0 0.00 0.00 0.00 91 1020.9
20260831070104 73 219 0.0 8.0 0.00 0.00 0.00 91 1021.1
20260831065602 73 177 1.0 8.0 0.00 0.00 0.00 91 1021.2
20260831065042 73 184 1.0 9.0 0.00 0.00 0.00 91 1021.2
20260831064535 73 206 1.0 9.0 0.00 0.00 0.00 91 1021.3
20260831064017 73 210 0.0 7.0 0.00 0.00 0.00 91 1021.4
20260831063521 73 196 1.0 8.0 0.00 0.00 0.00 91 1021.5
20260831063517 73 194 1.0 8.0 0.00 0.00 0.00 91 1021.4
20260831062456 73 190 0.0 8.0 0.00 0.00 0.00 91 1021.5
20260831061934 73 164 0.0 10.0 0.00 0.00 0.00 90 1021.6
20260831061404 73 181 0.0 10.0 0.00 0.00 0.00 90 1021.7
20260831060839 73 199 0.0 2.0 0.00 0.00 0.00 90 1021.7
20260831060321 73 231 0.0 6.0 0.00 0.00 0.00 90 1021.8
20260831060026 73 193 0.0 6.0 0.00 0.00 0.00 90 1021.9
20260831055237 73 180 0.0 5.0 0.00 0.00 0.00 90 1021.9
20260831054951 74 185 0.0 5.0 0.00 0.00 0.00 89 1021.9
20260831054714 74 180 0.0 5.0 0.00 0.00 0.00 89 1021.9
20260831053713 74 207 0.0 3.0 0.00 0.00 0.00 89 1022.0
20260831053153 74 189 0.0 6.0 0.00 0.00 0.00 89 1021.9
20260831052629 74 180 0.0 6.0 0.00 0.00 0.00 89 1022.1
20260831052114 74 197 0.0 0.0 0.00 0.00 0.00 89 1022.2
20260831051616 74 175 0.0 0.0 0.00 0.00 0.00 89 1022.2
20260831051046 74 181 0.0 2.0 0.00 0.00 0.00 88 1022.2
20260831050549 74 185 0.0 2.0 0.00 0.00 0.00 88 1022.4
20260831050023 74 194 0.0 6.0 0.00 0.00 0.00 88 1022.5
20260831045503 74 215 0.0 2.0 0.00 0.00 0.00 88 1022.5
20260831044934 74 213 0.0 7.0 0.00 0.00 0.00 88 1022.4
20260831044434 74 198 0.0 7.0 0.00 0.00 0.00 88 1022.5
20260831043907 74 186 0.0 7.0 0.00 0.00 0.00 88 1022.5
20260831043404 74 166 0.0 5.0 0.00 0.00 0.00 88 1022.5
20260831042907 74 184 0.0 5.0 0.00 0.00 0.00 88 1022.6
20260831042403 74 188 0.0 6.0 0.00 0.00 0.00 88 1022.6
20260831041904 74 188 0.0 6.0 0.00 0.00 0.00 88 1022.5
20260831041611 74 210 0.0 7.0 0.00 0.00 0.00 88 1022.5
20260831040835 74 179 0.0 7.0 0.00 0.00 0.00 88 1022.5
20260831040308 74 194 0.0 2.0 0.00 0.00 0.00 87 1022.5
20260831035804 74 192 0.0 5.0 0.00 0.00 0.00 87 1022.5
20260831035306 74 194 0.0 5.0 0.00 0.00 0.00 87 1022.4
20260831034803 75 185 0.0 5.0 0.00 0.00 0.00 87 1022.4
20260831034243 75 184 0.0 8.0 0.00 0.00 0.00 87 1022.5
20260831033732 75 179 0.0 8.0 0.00 0.00 0.00 87 1022.5
20260831033231 75 254 1.0 15.0 0.00 0.00 0.00 87 1022.4
20260831032706 75 186 1.0 15.0 0.00 0.00 0.00 87 1022.6
20260831032415 75 177 1.0 12.0 0.00 0.00 0.00 86 1022.5
20260831031850 75 236 1.0 12.0 0.00 0.00 0.00 86 1022.5
20260831031056 75 188 0.0 7.0 0.00 0.00 0.00 86 1022.5
20260831030558 75 221 0.0 7.0 0.00 0.00 0.00 85 1022.5
20260831030031 75 175 0.0 4.0 0.00 0.00 0.00 85 1022.4
20260831025508 75 213 0.0 6.0 0.00 0.00 0.00 84 1022.1
20260831025222 76 211 0.0 8.0 0.00 0.00 0.00 84 1022.1
20260831024425 76 148 0.0 8.0 0.00 0.00 0.00 84 1022.2
20260831023927 76 247 0.0 5.0 0.00 0.00 0.00 83 1022.5
20260831023419 76 211 0.0 5.0 0.00 0.00 0.00 82 1022.4
20260831022859 76 186 0.0 6.0 0.00 0.00 0.00 82 1022.4
20260831022329 76 199 0.0 6.0 0.00 0.00 0.00 82 1022.4
20260831021829 77 186 0.0 8.0 0.00 0.00 0.00 81 1022.4
20260831021301 77 186 1.0 8.0 0.00 0.00 0.00 81 1022.4
20260831020745 77 200 0.0 6.0 0.00 0.00 0.00 80 1022.5
20260831020249 77 206 0.0 8.0 0.00 0.00 0.00 80 1022.6
20260831015720 77 194 1.0 8.0 0.00 0.00 0.00 80 1022.6
20260831015217 78 204 0.0 7.0 0.00 0.00 0.00 79 1022.6
20260831014649 78 144 0.0 2.0 0.00 0.00 0.00 79 1022.6
20260831014403 78 206 0.0 3.0 0.00 0.00 0.00 78 1022.6
20260831013632 78 186 0.0 3.0 0.00 0.00 0.00 78 1022.6
20260831013128 78 252 0.0 9.0 0.00 0.00 0.00 78 1022.6
20260831012600 79 213 0.0 9.0 0.00 0.00 0.00 77 1022.4
20260831012032 79 192 0.0 9.0 0.00 0.00 0.00 76 1022.4
20260831011506 79 214 1.0 9.0 0.00 0.00 0.00 75 1022.2
20260831010936 79 180 1.0 10.0 0.00 0.00 0.00 74 1022.2
20260831010435 80 198 1.0 10.0 0.00 0.00 0.00 73 1022.1
20260831005921 80 132 0.0 11.0 0.00 0.00 0.00 72 1022.1
20260831005353 81 224 0.0 11.0 0.00 0.00 0.00 71 1021.8
20260831004852 81 182 1.0 6.0 0.00 0.00 0.00 69 1021.7
20260831004327 82 161 2.0 16.0 0.00 0.00 0.00 68 1021.8
20260831003825 82 172 1.0 16.0 0.00 0.00 0.00 67 1021.8
20260831003556 83 229 0.0 1.0 0.00 0.00 0.00 68 1022.0
20260831003140 83 183 0.0 0.0 0.00 0.00 0.00 68 1021.8
20260831003032 83 182 0.0 8.0 0.00 0.00 0.00 67 1021.7
20260831001757 83 203 0.0 8.0 0.00 0.00 0.00 67 1021.6
20260831001229 83 188 0.0 0.0 0.00 0.00 0.00 66 1021.5
20260831000728 84 189 0.0 3.0 0.00 0.00 0.00 66 1021.4
20260831000204 84 209 0.0 3.0 0.00 0.00 0.00 65 1021.4
20260830235636 84 192 0.0 8.0 0.00 0.00 0.00 65 1021.3
20260830235408 84 207 0.0 8.0 0.00 0.00 0.00 65 1021.4
20260830234609 85 163 0.0 6.0 0.00 0.00 0.00 66 1021.3
20260830234042 85 186 0.0 4.0 0.00 0.00 0.00 65 1021.3
20260830233539 85 117 0.0 2.0 0.00 0.00 0.00 66 1021.4
20260830233019 85 115 0.0 2.0 0.00 0.00 0.00 65 1021.4
20260830232516 86 136 0.0 7.0 0.00 0.00 0.00 65 1021.4
20260830232013 86 121 0.0 7.0 0.00 0.00 0.00 65 1021.4
20260830231742 86 196 0.0 6.0 0.00 0.00 0.00 64 1021.4
20260830230948 86 190 0.0 6.0 0.00 0.00 0.00 66 1021.4
20260830230943 86 159 0.0 1.0 0.00 0.00 0.00 66 1021.4
20260830225929 86 142 0.0 6.0 0.00 0.00 0.00 65 1021.4
20260830225426 86 105 1.0 11.0 0.00 0.00 0.00 65 1021.4
20260830224901 87 196 1.0 12.0 0.00 0.00 0.00 64 1021.4
20260830224337 87 205 0.0 4.0 0.00 0.00 0.00 63 1021.4
20260830223807 88 125 0.0 2.0 0.00 0.00 0.00 63 1021.3
20260830223307 88 129 0.0 3.0 0.00 0.00 0.00 64 1021.2
20260830223019 88 126 0.0 4.0 0.00 0.00 0.00 65 1021.1
20260830222253 88 148 0.0 4.0 0.00 0.00 0.00 65 1021.1
20260830221726 88 114 0.0 3.0 0.00 0.00 0.00 63 1021.1
20260830221211 89 82 0.0 3.0 0.00 0.00 0.00 63 1021.2
20260830220716 89 148 0.0 3.0 0.00 0.00 0.00 62 1021.2
20260830220147 90 158 0.0 3.0 0.00 0.00 0.00 61 1021.3
20260830215643 90 113 0.0 4.0 0.00 0.00 0.00 61 1021.3
20260830215119 91 112 0.0 4.0 0.00 0.00 0.00 58 1021.2
20260830214551 91 112 0.0 3.0 0.00 0.00 0.00 59 1021.2
20260830214048 90 127 0.0 2.0 0.00 0.00 0.00 61 1021.3
20260830213546 90 109 0.0 2.0 0.00 0.00 0.00 61 1021.3
20260830213043 89 88 0.0 5.0 0.00 0.00 0.00 62 1021.3
20260830212540 88 94 0.0 5.0 0.00 0.00 0.00 65 1021.1
20260830212018 87 106 0.0 9.0 0.00 0.00 0.00 68 1021.2
20260830211515 89 63 0.0 9.0 0.00 0.00 0.00 64 1021.4
20260830211455 89 36 0.0 7.0 0.00 0.00 0.00 66 1021.4
20260830210421 88 94 1.0 7.0 0.00 0.00 0.00 66 1021.4
20260830205920 88 105 1.0 5.0 0.00 0.00 0.00 67 1021.5
20260830205358 87 348 1.0 5.0 0.00 0.00 0.00 67 1021.6
20260830204901 87 130 1.0 9.0 0.00 0.00 0.00 69 1021.6
20260830204333 86 105 1.0 9.0 0.00 0.00 0.00 69 1021.6
20260830203831 86 116 1.0 7.0 0.00 0.00 0.00 69 1021.7
20260830203323 86 90 0.0 7.0 0.00 0.00 0.00 69 1021.8
20260830202822 86 132 1.0 12.0 0.00 0.00 0.00 69 1021.9
20260830202306 86 138 1.0 12.0 0.00 0.00 0.00 68 1022.0
20260830201805 87 82 0.0 5.0 0.00 0.00 0.00 68 1021.9
20260830201302 88 97 0.0 3.0 0.00 0.00 0.00 66 1022.0
20260830201008 88 119 0.0 6.0 0.00 0.00 0.00 66 1022.1
20260830200210 86 117 0.0 7.0 0.00 0.00 0.00 69 1022.1
20260830195914 86 105 0.0 7.0 0.00 0.00 0.00 69 1022.0
20260830195127 85 161 0.0 4.0 0.00 0.00 0.00 70 1022.0
20260830194630 85 55 0.0 1.0 0.00 0.00 0.00 69 1021.9
20260830194125 85 96 0.0 2.0 0.00 0.00 0.00 69 1022.1
20260830193623 86 99 0.0 2.0 0.00 0.00 0.00 68 1022.2
20260830193327 86 78 0.0 5.0 0.00 0.00 0.00 67 1022.1
20260830192553 85 124 0.0 5.0 0.00 0.00 0.00 70 1022.2
20260830192025 85 5 0.0 3.0 0.00 0.00 0.00 69 1022.1
20260830191515 85 97 0.0 3.0 0.00 0.00 0.00 70 1021.9
20260830191014 85 74 0.0 3.0 0.00 0.00 0.00 69 1022.0
20260830190513 86 88 0.0 2.0 0.00 0.00 0.00 68 1022.0
20260830190014 85 94 0.0 2.0 0.00 0.00 0.00 71 1022.1
20260830185455 84 86 0.0 2.0 0.00 0.00 0.00 71 1022.0
20260830184957 84 82 0.0 2.0 0.00 0.00 0.00 71 1022.0
20260830184455 84 69 0.0 1.0 0.00 0.00 0.00 71 1022.1
20260830183951 84 95 0.0 1.0 0.00 0.00 0.00 71 1022.4
20260830183447 83 57 0.0 4.0 0.00 0.00 0.00 72 1022.4
20260830182948 83 121 0.0 4.0 0.00 0.00 0.00 73 1022.6
20260830182425 82 60 0.0 7.0 0.00 0.00 0.00 74 1022.6
20260830182153 81 82 0.0 7.0 0.00 0.00 0.00 76 1022.8
20260830181652 81 94 0.0 5.0 0.00 0.00 0.00 74 1022.9
20260830180920 82 89 0.0 2.0 0.00 0.00 0.00 75 1022.8
20260830180355 81 111 0.0 5.0 0.00 0.00 0.00 75 1022.9
20260830175856 81 105 0.0 5.0 0.00 0.00 0.00 75 1022.7
20260830175334 81 96 0.0 7.0 0.00 0.00 0.00 77 1022.7
20260830174836 80 120 0.0 7.0 0.00 0.00 0.00 78 1022.8
20260830174309 80 94 0.0 2.0 0.00 0.00 0.00 78 1022.9
20260830173807 80 83 0.0 4.0 0.00 0.00 0.00 77 1023.1
20260830173306 80 104 0.0 6.0 0.00 0.00 0.00 79 1023.2
20260830172806 79 93 0.0 5.0 0.00 0.00 0.00 80 1023.3
20260830172242 78 80 0.0 7.0 0.00 0.00 0.00 80 1023.4
20260830171945 78 103 0.0 7.0 0.00 0.00 0.00 80 1023.5
20260830171442 78 104 0.0 3.0 0.00 0.00 0.00 81 1023.6
20260830170715 77 109 0.0 1.0 0.00 0.00 0.00 81 1023.6
20260830170158 77 123 0.0 1.0 0.00 0.00 0.00 81 1023.5
20260830165633 78 96 0.0 1.0 0.00 0.00 0.00 81 1023.4
20260830165116 78 130 0.0 1.0 0.00 0.00 0.00 81 1023.3
20260830164605 77 139 0.0 3.0 0.00 0.00 0.00 81 1023.5
20260830164100 78 120 0.0 3.0 0.00 0.00 0.00 81 1023.5
20260830163600 78 101 0.0 3.0 0.00 0.00 0.00 81 1023.5
20260830163536 78 102 0.0 3.0 0.00 0.00 0.00 80 1023.4
20260830162806 78 96 0.0 2.0 0.00 0.00 0.00 79 1023.3
20260830162011 78 102 0.0 3.0 0.00 0.00 0.00 80 1023.1
20260830161453 78 87 0.0 7.0 0.00 0.00 0.00 79 1022.8
20260830160947 78 84 0.0 7.0 0.00 0.00 0.00 79 1022.8
20260830160720 78 9 0.0 5.0 0.00 0.00 0.00 79 1022.6
20260830155923 78 99 0.0 5.0 0.00 0.00 0.00 78 1022.6
20260830155401 78 57 0.0 4.0 0.00 0.00 0.00 78 1022.6
20260830154853 78 94 0.0 2.0 0.00 0.00 0.00 79 1022.6
20260830154351 78 86 0.0 2.0 0.00 0.00 0.00 80 1022.4
20260830153853 78 24 0.0 2.0 0.00 0.00 0.00 80 1022.5
20260830153330 78 92 0.0 1.0 0.00 0.00 0.00 81 1022.4
20260830152803 77 38 0.0 2.0 0.00 0.00 0.00 83 1022.5
20260830152306 76 82 0.0 5.0 0.00 0.00 0.00 83 1022.6
20260830152030 76 84 0.0 5.0 0.00 0.00 0.00 84 1022.6
20260830151302 76 80 0.0 1.0 0.00 0.00 0.00 85 1022.6
20260830151255 75 80 0.0 1.0 0.00 0.00 0.00 85 1022.6
20260830150229 75 48 0.0 0.0 0.00 0.00 0.00 87 1022.8
20260830145659 74 83 0.0 2.0 0.00 0.00 0.00 88 1022.8
20260830145136 74 103 0.0 6.0 0.00 0.00 0.00 89 1022.7